CW0133 Weather Reports


time (UTC)temp
C
wind
direction
speed
KPH
gust
KPH
rain 1hr
cm
rain 24hr
cm
rain mn
cm
humidity
%
barometer
mb
20260906060004 28 169 8.0 16.1 0.00 0.00 0.00 73 1014.0
20260906055503 28 165 8.0 19.3 0.00 0.00 0.00 72 1013.9
20260906055004 28 168 8.0 19.3 0.00 0.00 0.00 72 1013.9
20260906054503 28 168 6.4 16.1 0.00 0.00 0.00 72 1013.9
20260906054024 28 158 6.4 12.9 0.00 0.00 0.00 72 1013.8
20260906053503 28 168 8.0 16.1 0.00 0.00 0.00 72 1013.8
20260906053003 29 177 8.0 16.1 0.00 0.00 0.00 71 1013.8
20260906052503 29 173 6.4 12.9 0.00 0.00 0.00 71 1013.8
20260906052004 29 175 8.0 16.1 0.00 0.00 0.00 71 1013.9
20260906051503 29 172 9.7 19.3 0.00 0.00 0.00 71 1013.8
20260906051003 29 167 9.7 19.3 0.00 0.00 0.00 70 1013.9
20260906050503 29 166 8.0 16.1 0.00 0.00 0.00 70 1013.9
20260906050004 29 162 8.0 16.1 0.00 0.00 0.00 70 1013.9
20260906045503 29 161 8.0 12.9 0.00 0.00 0.00 70 1013.9
20260906045003 30 163 9.7 16.1 0.00 0.00 0.00 69 1013.9
20260906044504 30 161 8.0 17.7 0.00 0.00 0.00 69 1013.9
20260906044003 30 158 8.0 17.7 0.00 0.00 0.00 69 1013.9
20260906043503 30 154 8.0 16.1 0.00 0.00 0.00 68 1014.0
20260906043003 30 152 8.0 16.1 0.00 0.00 0.00 69 1014.0
20260906042503 30 162 8.0 20.9 0.00 0.00 0.00 68 1013.9
20260906042003 30 159 9.7 20.9 0.00 0.00 0.00 68 1013.8
20260906041503 30 148 8.0 17.7 0.00 0.00 0.00 67 1013.9
20260906041024 30 140 8.0 17.7 0.00 0.00 0.00 67 1013.9
20260906040504 30 136 8.0 19.3 0.00 0.00 0.00 66 1013.9
20260906040003 30 135 8.0 17.7 0.00 0.00 0.00 66 1013.8
20260906035503 30 129 9.7 20.9 0.00 0.00 0.00 66 1013.8
20260906035024 30 127 9.7 20.9 0.00 0.00 0.00 65 1013.8
20260906034504 31 128 9.7 20.9 0.00 0.00 0.00 65 1013.9
20260906034003 31 132 11.3 20.9 0.00 0.00 0.00 65 1013.9
20260906033524 31 135 11.3 22.5 0.00 0.00 0.00 64 1013.8
20260906033003 31 128 9.7 22.5 0.00 0.00 0.00 64 1013.7
20260906032524 31 118 9.7 25.7 0.00 0.00 0.00 63 1013.6
20260906032003 31 120 9.7 25.7 0.00 0.00 0.00 63 1013.6
20260906031503 31 122 9.7 19.3 0.00 0.00 0.00 62 1013.5
20260906031003 31 118 9.7 19.3 0.00 0.00 0.00 61 1013.4
20260906030503 31 122 9.7 27.4 0.00 0.00 0.00 60 1013.2
20260906030003 31 122 11.3 27.4 0.00 0.00 0.00 60 1013.2
20260906025503 32 123 11.3 27.4 0.00 0.00 0.00 59 1013.1
20260906025003 32 129 11.3 29.0 0.00 0.00 0.00 58 1012.9
20260906024503 32 132 9.7 29.0 0.00 0.00 0.00 57 1012.8
20260906024003 32 132 8.0 17.7 0.00 0.00 0.00 56 1012.7
20260906023503 32 123 8.0 17.7 0.00 0.00 0.00 56 1012.7
20260906023003 32 124 9.7 17.7 0.00 0.00 0.00 56 1012.3
20260906022503 32 130 9.7 20.9 0.00 0.00 0.00 55 1012.2
20260906022003 32 131 9.7 20.9 0.00 0.00 0.00 55 1012.1
20260906021503 32 129 11.3 29.0 0.00 0.00 0.00 55 1012.0
20260906021003 32 130 9.7 29.0 0.00 0.00 0.00 54 1011.9
20260906020503 32 129 6.4 19.3 0.00 0.00 0.00 54 1011.8
20260906020024 33 119 6.4 11.3 0.00 0.00 0.00 53 1011.8
20260906015524 33 117 6.4 12.9 0.00 0.00 0.00 52 1011.7
20260906015004 33 115 3.2 12.9 0.00 0.00 0.00 52 1011.7
20260906014503 33 110 6.4 16.1 0.00 0.00 0.00 52 1011.7
20260906014003 33 112 8.0 16.1 0.00 0.00 0.00 52 1011.7
20260906013503 33 106 6.4 17.7 0.00 0.00 0.00 51 1011.5
20260906013003 33 95 6.4 17.7 0.00 0.00 0.00 51 1011.5
20260906012503 33 84 6.4 12.9 0.00 0.00 0.00 51 1011.5
20260906012003 34 83 8.0 16.1 0.00 0.00 0.00 50 1011.4
20260906011503 34 92 9.7 17.7 0.00 0.00 0.00 50 1011.4
20260906011024 34 97 9.7 22.5 0.00 0.00 0.00 49 1011.4
20260906010503 34 106 12.9 29.0 0.00 0.00 0.00 48 1011.4
20260906010004 35 113 11.3 29.0 0.00 0.00 0.00 47 1011.4
20260906005504 35 114 9.7 19.3 0.00 0.00 0.00 46 1011.4
20260906005004 35 109 11.3 25.7 0.00 0.00 0.00 45 1011.3
20260906004504 35 106 11.3 29.0 0.00 0.00 0.00 45 1011.2
20260906004004 35 108 12.9 29.0 0.00 0.00 0.00 44 1011.2
20260906003504 36 107 11.3 27.4 0.00 0.00 0.00 43 1011.3
20260906003025 36 109 11.3 30.6 0.00 0.00 0.00 43 1011.3
20260906002504 36 108 12.9 30.6 0.00 0.00 0.00 42 1011.1
20260906002004 36 102 11.3 29.0 0.00 0.00 0.00 41 1011.0
20260906001504 36 87 8.0 29.0 0.00 0.00 0.00 39 1011.1
20260906001025 37 58 6.4 19.3 0.00 0.00 0.00 39 1011.0
20260906000504 37 70 8.0 17.7 0.00 0.00 0.00 38 1010.9
20260906000004 37 93 8.0 17.7 0.00 0.00 0.00 38 1011.0
20260905235504 37 93 8.0 17.7 0.00 0.00 0.00 37 1011.0
20260905235004 37 87 8.0 17.7 0.00 0.00 0.00 37 1010.9
20260905234504 37 88 8.0 16.1 0.00 0.00 0.00 36 1010.9
20260905234025 37 91 8.0 17.7 0.00 0.00 0.00 37 1010.9
20260905233504 37 100 8.0 27.4 0.00 0.00 0.00 36 1010.9
20260905233004 38 113 6.4 27.4 0.00 0.00 0.00 36 1010.8
20260905232504 38 136 6.4 20.9 0.00 0.00 0.00 34 1010.8
20260905232004 38 151 8.0 19.3 0.00 0.00 0.00 35 1010.8
20260905231504 38 167 8.0 19.3 0.00 0.00 0.00 34 1010.9
20260905231004 38 184 6.4 16.1 0.00 0.00 0.00 33 1010.9
20260905230525 38 189 6.4 12.9 0.00 0.00 0.00 33 1010.9
20260905230004 38 175 6.4 12.9 0.00 0.00 0.00 33 1011.0
20260905225504 38 161 8.0 22.5 0.00 0.00 0.00 33 1010.8
20260905225004 39 150 8.0 22.5 0.00 0.00 0.00 33 1010.8
20260905224504 39 135 8.0 22.5 0.00 0.00 0.00 33 1010.8
20260905224004 39 151 9.7 22.5 0.00 0.00 0.00 32 1010.8
20260905223504 39 169 8.0 16.1 0.00 0.00 0.00 32 1010.8
20260905223004 40 170 9.7 17.7 0.00 0.00 0.00 32 1010.8
20260905222504 40 164 8.0 17.7 0.00 0.00 0.00 32 1010.9
20260905222004 40 159 3.2 12.9 0.00 0.00 0.00 32 1011.0
20260905221504 40 117 6.4 16.1 0.00 0.00 0.00 31 1011.0
20260905221025 40 120 8.0 17.7 0.00 0.00 0.00 32 1011.1
20260905220504 40 108 6.4 17.7 0.00 0.00 0.00 32 1011.1
20260905220004 40 67 6.4 16.1 0.00 0.00 0.00 32 1011.2
20260905215504 40 61 6.4 16.1 0.00 0.00 0.00 33 1011.2
20260905215004 40 140 6.4 12.9 0.00 0.00 0.00 33 1011.2
20260905214525 40 158 9.7 20.9 0.00 0.00 0.00 32 1011.2
20260905214025 40 162 9.7 20.9 0.00 0.00 0.00 32 1011.2
20260905213504 40 166 9.7 19.3 0.00 0.00 0.00 32 1011.1
20260905213004 40 162 11.3 20.9 0.00 0.00 0.00 33 1011.2
20260905212525 40 177 8.0 20.9 0.00 0.00 0.00 32 1011.1
20260905212003 40 189 6.4 11.3 0.00 0.00 0.00 34 1011.3
20260905211525 40 173 8.0 17.7 0.00 0.00 0.00 33 1011.3
20260905211004 40 159 6.4 17.7 0.00 0.00 0.00 34 1011.4
20260905210504 39 135 8.0 17.7 0.00 0.00 0.00 33 1011.5
20260905210004 39 153 6.4 17.7 0.00 0.00 0.00 33 1011.6
20260905205504 40 133 6.4 17.7 0.00 0.00 0.00 33 1011.7
20260905205025 40 121 6.4 20.9 0.00 0.00 0.00 33 1011.7
20260905204503 40 135 9.7 20.9 0.00 0.00 0.00 33 1011.9
20260905204004 40 138 11.3 20.9 0.00 0.00 0.00 34 1012.0
20260905203504 40 154 9.7 20.9 0.00 0.00 0.00 34 1011.9
20260905203025 40 155 9.7 19.3 0.00 0.00 0.00 34 1012.1
20260905202504 40 153 8.0 17.7 0.00 0.00 0.00 33 1012.2
20260905202004 40 147 8.0 16.1 0.00 0.00 0.00 34 1012.4
20260905201504 39 121 8.0 19.3 0.00 0.00 0.00 34 1012.4
20260905201004 39 155 9.7 19.3 0.00 0.00 0.00 35 1012.5
20260905200504 39 195 9.7 20.9 0.00 0.00 0.00 36 1012.5
20260905200004 39 194 11.3 25.7 0.00 0.00 0.00 33 1012.7
20260905195504 39 193 8.0 25.7 0.00 0.00 0.00 34 1012.8
20260905195004 38 167 6.4 19.3 0.00 0.00 0.00 33 1012.8
20260905194504 38 174 8.0 20.9 0.00 0.00 0.00 35 1012.9
20260905194004 38 203 8.0 20.9 0.00 0.00 0.00 35 1013.1
20260905193504 38 226 6.4 12.9 0.00 0.00 0.00 37 1013.0
20260905193004 38 207 6.4 17.7 0.00 0.00 0.00 36 1013.1
20260905192504 38 192 6.4 17.7 0.00 0.00 0.00 36 1013.2
20260905192003 38 155 8.0 17.7 0.00 0.00 0.00 38 1013.2
20260905191504 38 130 8.0 19.3 0.00 0.00 0.00 38 1013.3
20260905191025 38 140 8.0 19.3 0.00 0.00 0.00 38 1013.3
20260905190503 38 163 8.0 19.3 0.00 0.00 0.00 36 1013.6
20260905190024 38 155 6.4 19.3 0.00 0.00 0.00 36 1013.7
20260905185504 38 175 8.0 19.3 0.00 0.00 0.00 36 1013.8
20260905185003 38 183 8.0 19.3 0.00 0.00 0.00 35 1014.0
20260905184504 38 185 8.0 20.9 0.00 0.00 0.00 40 1014.0
20260905184003 37 168 11.3 25.7 0.00 0.00 0.00 39 1014.1
20260905183504 37 165 9.7 25.7 0.00 0.00 0.00 38 1014.2
20260905183004 37 188 8.0 19.3 0.00 0.00 0.00 39 1014.2
20260905182504 37 189 9.7 22.5 0.00 0.00 0.00 39 1014.3
20260905182024 37 162 9.7 25.7 0.00 0.00 0.00 41 1014.5
20260905181504 37 141 9.7 25.7 0.00 0.00 0.00 40 1014.5
20260905181004 37 139 9.7 19.3 0.00 0.00 0.00 43 1014.6
20260905180504 36 171 8.0 19.3 0.00 0.00 0.00 45 1014.7
20260905180003 36 176 8.0 19.3 0.00 0.00 0.00 46 1014.7
20260905175504 36 157 9.7 19.3 0.00 0.00 0.00 49 1014.8
20260905175003 35 166 8.0 19.3 0.00 0.00 0.00 48 1015.0
20260905174524 35 186 3.2 17.7 0.00 0.00 0.00 50 1015.1
20260905174004 35 182 6.4 19.3 0.00 0.00 0.00 49 1015.2
20260905173503 35 177 8.0 19.3 0.00 0.00 0.00 51 1015.3
20260905173004 35 178 8.0 19.3 0.00 0.00 0.00 51 1015.3
20260905172525 34 169 8.0 19.3 0.00 0.00 0.00 51 1015.4
20260905172004 34 158 8.0 17.7 0.00 0.00 0.00 51 1015.6
20260905171503 33 156 9.7 20.9 0.00 0.00 0.00 53 1015.7
20260905171004 33 147 11.3 20.9 0.00 0.00 0.00 52 1015.7
20260905170503 33 152 8.0 17.7 0.00 0.00 0.00 56 1015.6
20260905170003 33 191 6.4 16.1 0.00 0.00 0.00 58 1015.8
20260905165504 32 191 8.0 17.7 0.00 0.00 0.00 59 1015.7
20260905165003 32 203 6.4 17.7 0.00 0.00 0.00 59 1015.7
20260905164524 32 186 6.4 12.9 0.00 0.00 0.00 61 1015.7
20260905164003 32 171 9.7 19.3 0.00 0.00 0.00 61 1015.7
20260905163504 32 169 9.7 19.3 0.00 0.00 0.00 62 1015.8
20260905163024 32 146 9.7 27.4 0.00 0.00 0.00 63 1015.7
20260905162503 32 140 9.7 27.4 0.00 0.00 0.00 63 1015.8
20260905162003 31 165 8.0 20.9 0.00 0.00 0.00 65 1015.8
20260905161524 31 182 8.0 17.7 0.00 0.00 0.00 66 1015.8
20260905161024 31 184 11.3 20.9 0.00 0.00 0.00 65 1015.8
20260905160503 31 183 11.3 20.9 0.00 0.00 0.00 68 1015.7
20260905160003 30 174 9.7 20.9 0.00 0.00 0.00 69 1015.8
20260905155503 30 160 9.7 19.3 0.00 0.00 0.00 69 1015.7
20260905155003 30 156 9.7 17.7 0.00 0.00 0.00 71 1015.7
20260905154524 30 155 9.7 19.3 0.00 0.00 0.00 72 1015.7
20260905154003 30 157 11.3 19.3 0.00 0.00 0.00 73 1015.7
20260905153503 29 175 8.0 19.3 0.00 0.00 0.00 76 1015.7
20260905153003 28 195 3.2 12.9 0.00 0.00 0.00 80 1015.7
20260905152503 28 180 6.4 16.1 0.00 0.00 0.00 81 1015.7
20260905152003 28 178 8.0 16.1 0.00 0.00 0.00 81 1015.7
20260905151503 28 192 6.4 12.9 0.00 0.00 0.00 82 1015.7
20260905151024 27 191 6.4 12.9 0.00 0.00 0.00 84 1015.8
20260905150503 27 179 8.0 16.1 0.00 0.00 0.00 85 1015.8
20260905150003 27 179 8.0 16.1 0.00 0.00 0.00 86 1015.9
20260905145503 27 158 8.0 12.9 0.00 0.00 0.00 87 1015.9
20260905145024 27 146 6.4 12.9 0.00 0.00 0.00 88 1015.8
20260905144503 27 162 6.4 12.9 0.00 0.00 0.00 90 1015.7
20260905144003 26 176 6.4 12.9 0.00 0.00 0.00 91 1015.6
20260905143503 26 203 6.4 11.3 0.00 0.00 0.00 92 1015.7
20260905143003 26 208 6.4 11.3 0.00 0.00 0.00 92 1015.7
20260905142503 26 179 6.4 11.3 0.00 0.00 0.00 93 1015.6
20260905142003 26 164 6.4 11.3 0.00 0.00 0.00 93 1015.6
20260905141503 26 150 3.2 8.0 0.00 0.00 0.00 93 1015.6
20260905141003 26 141 3.2 8.0 0.00 0.00 0.00 93 1015.6
20260905140503 26 145 6.4 8.0 0.00 0.00 0.00 93 1015.6
20260905140003 25 152 3.2 8.0 0.00 0.00 0.00 94 1015.5
20260905135524 25 168 1.6 8.0 0.00 0.00 0.00 94 1015.5
20260905135024 25 170 1.6 6.4 0.00 0.00 0.00 93 1015.5
20260905134524 25 170 1.6 3.2 0.00 0.00 0.00 93 1015.4
20260905134004 24 170 0.0 3.2 0.00 0.00 0.00 93 1015.4
20260905133503 24 170 0.0 3.2 0.00 0.00 0.00 93 1015.4
20260905133003 23 170 0.0 3.2 0.00 0.00 0.00 92 1015.4
20260905132503 23 0 0.0 0.0 0.00 0.00 0.00 92 1015.4
20260905132003 23 0 0.0 0.0 0.00 0.00 0.00 92 1015.3
20260905131503 23 0 0.0 0.0 0.00 0.00 0.00 91 1015.1
20260905131003 23 0 0.0 0.0 0.00 0.00 0.00 91 1015.0
20260905130503 23 170 0.0 1.6 0.00 0.00 0.00 91 1015.0
20260905130003 23 170 0.0 1.6 0.00 0.00 0.00 91 1015.0
20260905125504 23 170 0.0 1.6 0.00 0.00 0.00 90 1015.0
20260905125004 22 0 0.0 0.0 0.00 0.00 0.00 89 1014.9
20260905124504 22 0 0.0 0.0 0.00 0.00 0.00 89 1014.8
20260905124025 22 170 0.0 1.6 0.00 0.00 0.00 89 1014.8
20260905123504 23 170 0.0 1.6 0.00 0.00 0.00 89 1014.8
20260905123004 23 170 0.0 1.6 0.00 0.00 0.00 89 1014.9
20260905122504 23 170 0.0 1.6 0.00 0.00 0.00 89 1014.9
20260905122004 23 170 0.0 1.6 0.00 0.00 0.00 89 1014.8
20260905121525 23 170 1.6 1.6 0.00 0.00 0.00 88 1014.9
20260905121025 23 170 1.6 1.6 0.00 0.00 0.00 88 1014.8
20260905120504 23 170 0.0 1.6 0.00 0.00 0.00 89 1014.7
20260905120004 23 0 0.0 0.0 0.00 0.00 0.00 89 1014.6
20260905115504 23 0 0.0 0.0 0.00 0.00 0.00 88 1014.5
20260905115004 23 0 0.0 0.0 0.00 0.00 0.00 88 1014.7
20260905114504 23 170 0.0 1.6 0.00 0.00 0.00 88 1014.6
20260905114004 23 170 0.0 1.6 0.00 0.00 0.00 88 1014.5
20260905113504 23 0 0.0 0.0 0.00 0.00 0.00 88 1014.5
20260905113004 23 0 0.0 0.0 0.00 0.00 0.00 88 1014.4
20260905112504 23 0 0.0 0.0 0.00 0.00 0.00 88 1014.4
20260905112004 23 0 0.0 0.0 0.00 0.00 0.00 88 1014.4
20260905111525 23 0 0.0 0.0 0.00 0.00 0.00 88 1014.3
20260905111004 24 0 0.0 0.0 0.00 0.00 0.00 88 1014.2
20260905110504 24 0 0.0 0.0 0.00 0.00 0.00 88 1014.2
20260905110004 24 0 0.0 0.0 0.00 0.00 0.00 88 1014.2
20260905105504 24 170 0.0 1.6 0.00 0.00 0.00 88 1014.2
20260905105004 24 170 0.0 1.6 0.00 0.00 0.00 88 1014.2
20260905104525 24 0 0.0 0.0 0.00 0.00 0.00 88 1014.1
20260905104004 24 170 0.0 1.6 0.00 0.00 0.00 88 1014.0
20260905103525 24 170 0.0 1.6 0.00 0.00 0.00 88 1014.0
20260905103004 24 170 0.0 1.6 0.00 0.00 0.00 88 1014.1
20260905102504 24 170 0.0 1.6 0.00 0.00 0.00 88 1014.0
20260905102004 25 170 0.0 1.6 0.00 0.00 0.00 88 1014.0
20260905101504 25 170 0.0 1.6 0.00 0.00 0.00 87 1014.0
20260905101004 25 170 1.6 3.2 0.00 0.00 0.00 87 1014.0
20260905100504 25 170 0.0 3.2 0.00 0.00 0.00 87 1014.0
20260905100004 25 170 1.6 3.2 0.00 0.00 0.00 87 1014.0
20260905095504 25 170 1.6 3.2 0.00 0.00 0.00 87 1013.8
20260905095004 25 170 0.0 3.2 0.00 0.00 0.00 87 1013.9
20260905094525 25 0 0.0 0.0 0.00 0.00 0.00 87 1013.8
20260905094003 25 170 0.0 1.6 0.00 0.00 0.00 87 1013.7
20260905093525 25 170 0.0 1.6 0.00 0.00 0.00 87 1013.6
20260905093025 25 170 0.0 1.6 0.00 0.00 0.00 87 1013.7
20260905092504 25 170 0.0 3.2 0.00 0.00 0.00 87 1013.7
20260905092025 25 170 1.6 3.2 0.00 0.00 0.00 87 1013.8
20260905091504 25 170 1.6 6.4 0.00 0.00 0.00 87 1014.0
20260905091025 25 170 1.6 6.4 0.00 0.00 0.00 87 1013.9
20260905090504 25 170 1.6 6.4 0.00 0.00 0.00 87 1013.9
20260905090004 25 170 1.6 6.4 0.00 0.00 0.00 87 1013.9
20260905085504 25 170 1.6 6.4 0.00 0.00 0.00 87 1013.8
20260905085004 25 170 1.6 6.4 0.00 0.00 0.00 87 1013.8
20260905084504 25 170 3.2 6.4 0.00 0.00 0.00 87 1013.9
20260905084004 25 170 3.2 6.4 0.00 0.00 0.00 87 1014.0
20260905083504 26 170 3.2 8.0 0.00 0.00 0.00 87 1014.0
20260905083003 26 170 3.2 8.0 0.00 0.00 0.00 87 1014.1
20260905082503 26 170 3.2 6.4 0.00 0.00 0.00 86 1014.0
20260905082025 26 170 3.2 6.4 0.00 0.00 0.00 86 1014.1
20260905081524 26 168 3.2 8.0 0.00 0.00 0.00 86 1014.1
20260905081004 26 166 3.2 8.0 0.00 0.00 0.00 86 1014.2
20260905080525 26 165 3.2 6.4 0.00 0.00 0.00 86 1014.2
20260905080025 26 165 3.2 8.0 0.00 0.00 0.00 86 1014.3
20260905075503 26 165 3.2 8.0 0.00 0.00 0.00 86 1014.3
20260905075003 26 164 3.2 8.0 0.00 0.00 0.00 85 1014.5
20260905074504 26 158 3.2 9.7 0.00 0.00 0.00 85 1014.4
20260905074004 26 153 3.2 9.7 0.00 0.00 0.00 85 1014.4
20260905073525 26 154 3.2 9.7 0.00 0.00 0.00 84 1014.4
20260905073024 26 164 3.2 9.7 0.00 0.00 0.00 84 1014.5
20260905072504 26 171 6.4 9.7 0.00 0.00 0.00 84 1014.4
20260905072004 26 169 3.2 8.0 0.00 0.00 0.00 84 1014.6
20260905071504 26 170 3.2 8.0 0.00 0.00 0.00 84 1014.5
20260905071004 26 172 3.2 8.0 0.00 0.00 0.00 84 1014.6
20260905070525 26 174 3.2 8.0 0.00 0.00 0.00 83 1014.6
20260905070004 26 175 6.4 8.0 0.00 0.00 0.00 83 1014.5
20260905065504 26 174 6.4 8.0 0.00 0.00 0.00 83 1014.6
20260905065004 26 171 6.4 9.7 0.00 0.00 0.00 83 1014.6
20260905064503 26 161 6.4 11.3 0.00 0.00 0.00 83 1014.6
20260905064004 26 150 3.2 11.3 0.00 0.00 0.00 82 1014.6
20260905063524 26 152 3.2 11.3 0.00 0.00 0.00 82 1014.7
20260905063003 26 155 3.2 11.3 0.00 0.00 0.00 82 1014.7
20260905062503 26 148 3.2 8.0 0.00 0.00 0.00 81 1014.7
20260905062003 26 149 3.2 9.7 0.00 0.00 0.00 81 1014.8
20260905061503 26 159 3.2 9.7 0.00 0.00 0.00 81 1014.7
20260905061003 27 146 3.2 8.0 0.00 0.00 0.00 81 1014.8
20260905060503 27 132 3.2 9.7 0.00 0.00 0.00 80 1014.6